Beaver Island, MI

12:44 AM EDT on June 27, 2017 (GMT -0400)
Beaver Island

Weather History for KSJX - October, 2012

Change the Weather History Date:

Thursday, October 25, 2012

  Actual Average Record
Temperature  
Mean Temperature 60 °F -  
Max Temperature 73 °F 52 °F 73 °F (2012)
Min Temperature 46 °F 40 °F 26 °F (1962)
Degree Days  
Heating Degree Days 6    
Growing Degree Days 10 (Base 50)    
Moisture  
Dew Point 57 °F    
Average Humidity 73    
Maximum Humidity 88    
Minimum Humidity 56    
Precipitation  
Precipitation 0.00 in - - ()
Sea Level Pressure  
Sea Level Pressure 29.68 in    
Wind  
Wind Speed 11 mph (South)    
Max Wind Speed 23 mph    
Max Gust Speed 39 mph    
Visibility 10 miles    
Events Rain    
Averages and records for this station are not official NWS values.
T = Trace of Precipitation, MM = Missing Value Source: NWS Daily Summary

Daily Weather History Graph

Daily Weather History Graph

Search for Another Location

Airport or City:

Trip Planner

Search our weather history database for the weather conditions in past years. The results will help you decide how hot, cold, wet, or windy it might be!

Date:

Astronomy

Oct. 25, 2012 Rise Set
Actual Time 8:13 AM EDT 6:38 PM EDT
Civil Twilight 7:42 AM EDT 7:09 PM EDT
Nautical Twilight 7:07 AM EDT 7:44 PM EDT
Astronomical Twilight 6:33 AM EDT 8:18 PM EDT
Moon 4:34 PM EDT (10/25) 3:57 AM EDT (10/25)
Length of Visible Light 11h 26m
Length of Day
10h 25m
Waxing Gibbous, 84% of the Moon is Illuminated
Oct 25
Waxing Gibbous
Oct 29
Full
Nov 6
Last Quarter
Nov 13
New
Nov 20
First Quarter

Hourly Weather History & Observations

Time (EDT) Temp. Windchill Dew Point Humidity Pressure Visibility Wind Dir Wind Speed Gust Speed Precip Events Conditions
12:15 AM 64.2 °F - 58.8 °F 83% 29.82 in 10.0 mi SE 8.1 mph - N/A   Mostly Cloudy
12:35 AM 64.8 °F - 59.0 °F 82% 29.82 in 10.0 mi SSE 9.2 mph - N/A   Overcast
12:55 AM 65.7 °F - 59.2 °F 80% 29.81 in 10.0 mi SSE 9.2 mph 16.1 mph N/A   Overcast
1:35 AM 65.8 °F - 59.0 °F 79% 29.80 in 10.0 mi SSE 10.4 mph 16.1 mph N/A   Overcast
1:55 AM 66.2 °F - 59.2 °F 78% 29.80 in 10.0 mi South 8.1 mph - N/A   Mostly Cloudy
2:15 AM 66.6 °F - 59.4 °F 78% 29.79 in 10.0 mi SSE 9.2 mph - N/A   Mostly Cloudy
2:35 AM 66.6 °F - 59.4 °F 78% 29.79 in 10.0 mi South 10.4 mph 16.1 mph N/A   Mostly Cloudy
2:55 AM 66.4 °F - 59.5 °F 79% 29.79 in 10.0 mi South 8.1 mph - N/A   Mostly Cloudy
3:35 AM 66.2 °F - 59.7 °F 80% 29.78 in 10.0 mi South 8.1 mph - N/A   Clear
3:55 AM 66.7 °F - 59.9 °F 79% 29.77 in 10.0 mi South 8.1 mph 16.1 mph N/A   Clear
4:15 AM 67.1 °F - 59.9 °F 78% 29.75 in 10.0 mi South 8.1 mph - N/A   Clear
4:35 AM 67.5 °F - 60.1 °F 77% 29.75 in 10.0 mi South 9.2 mph - N/A   Clear
4:55 AM 66.7 °F - 59.7 °F 78% 29.74 in 10.0 mi South 8.1 mph - N/A   Clear
5:15 AM 66.6 °F - 59.9 °F 79% 29.73 in 10.0 mi South 9.2 mph - N/A   Clear
5:35 AM 65.8 °F - 59.4 °F 80% 29.73 in 10.0 mi South 8.1 mph - N/A   Clear
5:55 AM 65.8 °F - 59.4 °F 80% 29.73 in 10.0 mi South 11.5 mph 17.3 mph N/A   Clear
6:15 AM 66.4 °F - 59.9 °F 80% 29.73 in 10.0 mi South 9.2 mph 18.4 mph N/A   Scattered Clouds
6:35 AM 66.4 °F - 59.5 °F 79% 29.72 in 10.0 mi South 9.2 mph 16.1 mph N/A   Scattered Clouds
6:55 AM 66.2 °F - 59.4 °F 79% 29.73 in 10.0 mi SSE 8.1 mph 18.4 mph N/A   Clear
7:15 AM 66.4 °F - 59.5 °F 79% 29.72 in 10.0 mi South 11.5 mph 18.4 mph N/A   Scattered Clouds
7:55 AM 66.4 °F - 59.0 °F 77% 29.71 in 10.0 mi South 11.5 mph 18.4 mph N/A   Scattered Clouds
8:15 AM 66.4 °F - 59.0 °F 77% 29.71 in 10.0 mi South 9.2 mph - N/A   Scattered Clouds
8:35 AM 66.2 °F - 58.8 °F 77% 29.70 in 10.0 mi South 11.5 mph 19.6 mph N/A   Clear
8:55 AM 66.4 °F - 58.5 °F 76% 29.70 in 10.0 mi South 8.1 mph 18.4 mph N/A   Clear
9:34 AM 67.3 °F - 58.5 °F 73% 29.70 in 10.0 mi South 8.1 mph 18.4 mph N/A   Clear
9:55 AM 67.1 °F - 58.1 °F 73% 29.70 in 10.0 mi South 16.1 mph 25.3 mph N/A   Clear
10:15 AM 67.1 °F - 58.1 °F 73% 29.70 in 10.0 mi South 13.8 mph 21.9 mph N/A   Clear
10:35 AM 67.1 °F - 58.1 °F 73% 29.67 in 10.0 mi SSE 11.5 mph 20.7 mph N/A   Clear
10:55 AM 67.6 °F - 58.1 °F 71% 29.67 in 10.0 mi SSE 16.1 mph 27.6 mph N/A   Clear
11:15 AM 69.1 °F - 58.3 °F 68% 29.68 in 10.0 mi South 13.8 mph 26.5 mph N/A   Clear
11:35 AM 68.9 °F - 58.3 °F 69% 29.67 in 10.0 mi South 12.7 mph 20.7 mph N/A   Clear
11:55 AM 69.4 °F - 58.1 °F 67% 29.67 in 10.0 mi South 13.8 mph 24.2 mph N/A   Clear
12:15 PM 70.3 °F - 58.1 °F 65% 29.66 in 10.0 mi South 13.8 mph 23.0 mph N/A   Clear
12:35 PM 69.4 °F - 58.1 °F 67% 29.65 in 10.0 mi South 8.1 mph 20.7 mph N/A   Clear
12:55 PM 70.2 °F - 58.1 °F 65% 29.64 in 10.0 mi South 11.5 mph 18.4 mph N/A   Clear
1:15 PM 71.1 °F - 58.3 °F 64% 29.64 in 10.0 mi South 8.1 mph 17.3 mph N/A   Scattered Clouds
1:35 PM 70.7 °F - 57.7 °F 63% 29.64 in 10.0 mi South 10.4 mph 24.2 mph N/A   Mostly Cloudy
1:55 PM 69.4 °F - 57.4 °F 65% 29.64 in 10.0 mi SSW 13.8 mph 24.2 mph N/A   Overcast
2:15 PM 69.3 °F - 58.1 °F 68% 29.63 in 10.0 mi SSW 17.3 mph 23.0 mph N/A   Overcast
2:35 PM 72.5 °F - 58.1 °F 60% 29.61 in 10.0 mi South 18.4 mph 27.6 mph N/A   Scattered Clouds
2:55 PM 73.9 °F - 57.2 °F 56% 29.60 in 10.0 mi South 16.1 mph 29.9 mph N/A   Clear
3:15 PM 72.5 °F - 56.7 °F 57% 29.61 in 10.0 mi SSW 15.0 mph 26.5 mph N/A   Clear
3:35 PM 70.9 °F - 56.8 °F 61% 29.61 in 10.0 mi SSW 16.1 mph 25.3 mph N/A   Scattered Clouds
3:55 PM 70.7 °F - 57.0 °F 62% 29.61 in 10.0 mi South 12.7 mph 24.2 mph N/A   Mostly Cloudy
4:15 PM 71.4 °F - 57.6 °F 62% 29.59 in 10.0 mi South 12.7 mph 20.7 mph N/A   Overcast
4:35 PM 72.3 °F - 57.2 °F 59% 29.58 in 10.0 mi South 16.1 mph 25.3 mph N/A   Scattered Clouds
4:55 PM 72.0 °F - 57.2 °F 60% 29.58 in 10.0 mi South 12.7 mph 21.9 mph N/A   Clear
5:15 PM 72.0 °F - 57.2 °F 60% 29.57 in 10.0 mi South 15.0 mph 27.6 mph N/A   Clear
5:35 PM 70.9 °F - 56.8 °F 61% 29.56 in 10.0 mi SSE 10.4 mph 21.9 mph N/A   Mostly Cloudy
5:55 PM 70.9 °F - 57.0 °F 61% 29.57 in 10.0 mi South 13.8 mph 20.7 mph N/A   Overcast
6:15 PM 70.7 °F - 57.2 °F 62% 29.57 in 10.0 mi South 11.5 mph 23.0 mph N/A   Overcast
6:35 PM 71.1 °F - 57.2 °F 61% 29.58 in 10.0 mi South 13.8 mph 24.2 mph N/A   Overcast
6:55 PM 70.2 °F - 57.4 °F 64% 29.57 in 10.0 mi South 15.0 mph 23.0 mph N/A   Overcast
7:14 PM 70.7 °F - 57.4 °F 63% 29.57 in 10.0 mi South 13.8 mph 23.0 mph N/A   Overcast
7:35 PM 70.3 °F - 57.4 °F 63% 29.57 in 10.0 mi South 20.7 mph 28.8 mph N/A   Overcast
7:55 PM 70.7 °F - 57.6 °F 63% 29.57 in 10.0 mi South 19.6 mph 27.6 mph N/A   Overcast
8:35 PM 66.0 °F - 57.7 °F 75% 29.61 in 4.0 mi SW 23.0 mph 39.1 mph N/A Rain Heavy Rain
8:55 PM 59.9 °F - 55.8 °F 86% 29.62 in 10.0 mi SW 16.1 mph 27.6 mph N/A   Overcast
9:15 PM 59.2 °F - 55.4 °F 87% 29.62 in 10.0 mi SW 12.7 mph 19.6 mph N/A   Light Drizzle
9:35 PM 57.9 °F - 54.5 °F 88% 29.62 in 7.0 mi SW 9.2 mph 21.9 mph N/A   Overcast
9:55 PM 52.9 °F - 49.1 °F 87% 29.65 in 10.0 mi WNW 16.1 mph 25.3 mph N/A   Light Drizzle
10:15 PM 50.5 °F - 46.9 °F 87% 29.68 in 10.0 mi NW 15.0 mph 23.0 mph N/A Rain Rain
10:35 PM 48.4 °F - 44.4 °F 86% 29.70 in 7.0 mi WNW 13.8 mph 26.5 mph N/A Rain Heavy Rain
10:55 PM 47.5 °F - 43.5 °F 86% 29.71 in 5.0 mi WNW 18.4 mph 25.3 mph N/A Rain Rain
11:35 PM 46.6 °F - 42.1 °F 84% 29.75 in 10.0 mi WNW 17.3 mph 27.6 mph N/A Rain Light Rain
11:55 PM 46.4 °F 41.1 °F 41.9 °F 84% 29.78 in 10.0 mi West 11.5 mph 21.9 mph N/A Rain Light Rain